Location: Gradaro
(45.0833°N, 10.8833°E)
Time: 14:41:47
(UTC+00:00)

SL-24 DEB - Pass Details

Date: 29 November 2020
Orbit: 664 x 701 km, 92.0° (Epoch: 24 January)

Event Time Altitude Azimuth Distance (km) Brightness Sun altitude
Rises 05:35:40 0° 183° (S) 3,058 7.9 -9.9°
Reaches altitude 10° 05:37:56 10° 187° (S) 2,150 7.0 -9.5°
Maximum altitude 05:42:38 61° 267° (W) 796 4.3 -8.8°
Drops below altitude 10° 05:47:24 10° 349° (NNW) 2,177 6.5 -8.0°
Sets 05:49:43 0° 352° (N) 3,100 7.3 -7.6°
